Flag for Germany Weather past 2 weeks in Viernheim, Hesse, Germany

Now
77 °F

Passing clouds.


Feels Like: 78 °F
Forecast: 59 / 85 °F
Wind: 6 mph from South

Location: Baden Wurttemberg - Neuostheim

Current Time: Aug 1, 2015 at 8:45:34 PM

Latest Report: Aug 1, 2015 at 7:50 PM


Visibility: N/A

Pressure: 29.95 "Hg

Humidity: 42%

Dew point: 52 °F

Location of ViernheimLocation

Historic Weather in Viernheim — Graph

°F

Viernheim temperature yesterday

Maximum temperature yesterday: 75 °F (at 6:50 PM)
Minimum temperature yesterday: 52 °F (at 5:50 AM)
Average temperature yesterday: 66 °F

Past Weeks' High & Low Weather Summary

 TemperatureHumidityPressure
High93 °F (Jul 17, 7:20 PM)100% (Jul 19, 2:50 PM)30.12 "Hg (Jul 19, 2:50 PM)
Low50 °F (Jul 30, 5:50 AM)23% (Jul 30, 5:50 PM)29.65 "Hg (Jul 24, 7:50 PM)
Average73 °F54%29.91 "Hg
* Reported Jul 17 7:20 PM — Aug 1 7:20 PM, Viernheim, Weather by CustomWeather, © 2015

Note: Actual official high and low records may vary slightly from our data, if they occured in-between our weather recording intervals... More about our weather records

Advertising

Viernheim weather history for previous 24 hours

 ConditionsComfort  
Time TempWeatherWind HumidityBarometerVisibility
7:20 PM
Sat, Aug 1
77 °FPassing clouds.7 mph39%29.95 "HgN/A
6:50 PM77 °FSunny.7 mph39%29.95 "Hg10 mi
6:20 PM79 °FPassing clouds.7 mph37%29.95 "HgN/A
5:50 PM77 °FPassing clouds.6 mph36%29.95 "HgN/A
5:20 PM77 °FSunny.5 mph34%29.95 "Hg10 mi
4:50 PM77 °FPassing clouds.5 mph32%29.95 "HgN/A
4:20 PM79 °FPassing clouds.5 mph30%29.95 "HgN/A
3:50 PM77 °FPassing clouds.6 mph30%29.95 "HgN/A
3:20 PM77 °FPassing clouds.7 mph30%29.95 "HgN/A
2:50 PM77 °FSunny.6 mph32%29.95 "Hg10 mi
2:20 PM75 °FSunny.5 mph34%29.95 "Hg10 mi
1:50 PM73 °FPassing clouds.6 mph38%29.95 "HgN/A
1:20 PM72 °FPassing clouds.9 mph41%29.95 "HgN/A
12:50 PM73 °FSunny.6 mph41%29.98 "Hg10 mi
12:20 PM72 °FPassing clouds.5 mph44%29.98 "HgN/A
11:50 AM68 °FPassing clouds.5 mph49%29.98 "HgN/A
11:20 AM66 °FSunny.2 mph52%29.98 "Hg10 mi
10:50 AM66 °FSunny.2 mph52%29.98 "Hg10 mi
10:20 AM66 °FSunny.2 mph49%29.95 "Hg10 mi
9:50 AM64 °FSunny.2 mph52%29.95 "Hg10 mi
9:20 AM64 °FSunny.3 mph52%29.95 "Hg10 mi
8:50 AM63 °FSunny.3 mph56%29.95 "Hg10 mi
8:20 AM61 °FSunny.3 mph59%29.95 "Hg10 mi
7:50 AM61 °FSunny.5 mph59%29.95 "Hg10 mi
7:20 AM61 °FSunny.2 mph59%29.92 "Hg10 mi
6:50 AM59 °FClear.2 mph63%29.92 "Hg10 mi
11:50 PM
Fri, Jul 31
63 °FClear.7 mph52%29.95 "Hg10 mi
11:20 PM63 °FClear.5 mph52%29.95 "Hg10 mi
9:50 PM68 °FSunny.6 mph43%29.95 "Hg10 mi
9:20 PM70 °FSunny.7 mph40%29.95 "Hg10 mi
8:50 PM70 °FSunny.6 mph40%29.95 "Hg10 mi
8:20 PM72 °FPassing clouds.8 mph36%29.95 "HgN/A
Weather by CustomWeather, © 2015

See weather overviewHow to use our weather pages